Home   Weather   Christiansted   Past weeks
Flag for US Virgin Islands

Past Weather in Christiansted, US Virgin Islands — Yesterday and Last 2 Weeks

Now
85 °F

Sunny.


Feels Like: 91 °F
Forecast: N/A
Wind: 5 mph from Southeast

Location: Christiansted / Henry E. Rohlsen Airport - Saint Croix

Current Time: Oct 15, 2019 at 6:11:22 pm

Latest Report: Oct 15, 2019 at 4:53 pm


Visibility: 10 mi

Pressure: 29.93 "Hg

Humidity: 65%

Dew Point: 72 °F

Location of ChristianstedLocation

Past Weather in Christiansted — Graph

°F

Christiansted Temperature Yesterday

Maximum temperature yesterday: 89 °F (at 11:53 am)
Minimum temperature yesterday: 76 °F (at 5:53 am)
Average temperature yesterday: 82 °F

High & Low Weather Summary for the Past Weeks

 TemperatureHumidityPressure
High91 °F (Oct 7, 11:53 am)91% (Oct 5, 3:53 am)30.00 "Hg (Oct 5, 3:53 am)
Low74 °F (Oct 11, 1:53 am)52% (Oct 8, 11:53 am)29.83 "Hg (Sep 30, 4:53 pm)
Average83 °F74%29.92 "Hg
* Reported Sep 30 4:53 pm — Oct 15 4:53 pm, Christiansted. Weather by CustomWeather, © 2019

Note: Actual official high and low records may vary slightly from our data, if they occured in-between our weather recording intervals... More about our weather records

Advertising

Christiansted Weather History for the Previous 24 Hours

Scroll right to see more
 ConditionsComfort  
Time TempWeatherWind HumidityBarometerVisibility
4:53 pm
Tue, Oct 15
85 °FScattered clouds.5 mph65%29.93 "Hg10 mi
3:53 pm86 °FScattered clouds.7 mph67%29.93 "Hg10 mi
2:53 pm85 °FScattered clouds.5 mph68%29.93 "Hg10 mi
1:53 pm82 °FLight rain. Broken clouds.7 mph74%29.95 "Hg10 mi
12:53 pm85 °FScattered clouds.5 mph70%29.97 "Hg10 mi
11:53 am88 °FPassing clouds.7 mph61%29.98 "Hg10 mi
10:53 am88 °FPassing clouds.8 mph59%30.00 "Hg10 mi
9:53 am88 °FPassing clouds.6 mph61%30.00 "Hg10 mi
8:53 am86 °FPassing clouds.6 mph70%29.99 "Hg10 mi
7:53 am83 °FPassing clouds.6 mph77%29.98 "Hg10 mi
6:53 am77 °FScattered clouds.3 mph88%29.97 "Hg10 mi
6:27 am77 °FScattered clouds.3 mph88%29.97 "Hg10 mi
5:53 am78 °FPassing clouds.5 mph87%29.95 "Hg10 mi
4:53 am76 °FPassing clouds.5 mph88%29.93 "Hg10 mi
3:53 am76 °FPassing clouds.3 mph88%29.94 "Hg10 mi
2:53 am76 °FClear.6 mph88%29.94 "Hg10 mi
1:53 am78 °FLight rain. Mostly cloudy.3 mph84%29.96 "Hg10 mi
12:53 am78 °FClear.5 mph82%29.98 "Hg10 mi
11:53 pm
Mon, Oct 14
80 °FPassing clouds.8 mph81%29.99 "Hg10 mi
10:53 pm79 °FPassing clouds.5 mph79%29.99 "Hg10 mi
9:53 pm79 °FClear.5 mph82%29.99 "Hg10 mi
8:53 pm79 °FPassing clouds.5 mph82%29.98 "Hg10 mi
7:53 pm80 °FClear.5 mph81%29.97 "Hg10 mi
6:53 pm81 °FPassing clouds.5 mph79%29.95 "Hg10 mi
Weather by CustomWeather, © 2019

See weather overview